Taos, NM

5:37 PM MDT on August 19, 2017 (GMT -0600)
Taos Municipal

Weather History for KSKX - May, 2012

Change the Weather History Date:

Friday, May 4, 2012

  Actual Average Record
Temperature  
Mean Temperature 58 °F -  
Max Temperature 78 °F 65 °F 82 °F (2000)
Min Temperature 37 °F 30 °F 23 °F (2008)
Degree Days  
Heating Degree Days 8    
Growing Degree Days 8 (Base 50)    
Moisture  
Dew Point 17 °F    
Average Humidity 22    
Maximum Humidity 42    
Minimum Humidity 11    
Precipitation  
Precipitation 0.00 in - - ()
Sea Level Pressure  
Sea Level Pressure 30.18 in    
Wind  
Wind Speed 6 mph (West)    
Max Wind Speed 16 mph    
Max Gust Speed 26 mph    
Visibility 10 miles    
Events      
Averages and records for this station are not official NWS values.
T = Trace of Precipitation, MM = Missing Value Source: NWS Daily Summary

Daily Weather History Graph

Daily Weather History Graph

Search for Another Location

Airport or City:

Trip Planner

Search our weather history database for the weather conditions in past years. The results will help you decide how hot, cold, wet, or windy it might be!

Date:

Astronomy

May. 04, 2012 Rise Set
Actual Time 6:05 AM MDT 7:53 PM MDT
Civil Twilight 5:37 AM MDT 8:21 PM MDT
Nautical Twilight 5:03 AM MDT 8:55 PM MDT
Astronomical Twilight 4:27 AM MDT 9:31 PM MDT
Moon 6:36 PM MDT (5/4) 4:46 AM MDT (5/4)
Length of Visible Light 14h 44m
Length of Day
13h 48m
Waxing Gibbous, 97% of the Moon is Illuminated
May 4
Waxing Gibbous
May 5
Full
May 12
Last Quarter
May 20
New
May 28
First Quarter

Hourly Weather History & Observations

Time (MDT) Temp. Windchill Dew Point Humidity Pressure Visibility Wind Dir Wind Speed Gust Speed Precip Events Conditions
12:15 AM 48.2 °F - 17.6 °F 30% 30.16 in 10.0 mi East 6.9 mph - N/A   Clear
12:35 AM 42.8 °F 38.6 °F 12.2 °F 29% 30.16 in 10.0 mi North 6.9 mph - N/A   Clear
12:55 AM 48.2 °F - 17.6 °F 30% 30.16 in 10.0 mi East 4.6 mph - N/A   Clear
1:15 AM 44.6 °F - 17.6 °F 34% 30.16 in 10.0 mi Calm Calm - N/A   Clear
1:35 AM 41.0 °F 36.4 °F 14.0 °F 33% 30.16 in 10.0 mi NNW 6.9 mph - N/A   Clear
1:55 AM 42.8 °F 40.1 °F 15.8 °F 34% 30.16 in 10.0 mi NNE 4.6 mph - N/A   Clear
2:15 AM 42.8 °F - 15.8 °F 34% 30.16 in 10.0 mi Calm Calm - N/A   Clear
2:35 AM 37.4 °F 34.9 °F 12.2 °F 36% 30.16 in 10.0 mi NNW 3.5 mph - N/A   Clear
2:55 AM 39.2 °F 35.0 °F 17.6 °F 42% 30.16 in 10.0 mi North 5.8 mph - N/A   Clear
3:15 AM 37.4 °F 34.9 °F 15.8 °F 41% 30.17 in 10.0 mi North 3.5 mph - N/A   Clear
3:35 AM 41.0 °F 38.0 °F 15.8 °F 36% 30.17 in 10.0 mi ENE 4.6 mph - N/A   Clear
3:55 AM 42.8 °F - 15.8 °F 34% 30.18 in 10.0 mi Calm Calm - N/A   Clear
4:15 AM 41.0 °F - 12.2 °F 31% 30.19 in 10.0 mi Calm Calm - N/A   Clear
4:35 AM 37.4 °F 34.9 °F 12.2 °F 36% 30.19 in 10.0 mi North 3.5 mph - N/A   Clear
4:55 AM 37.4 °F - 12.2 °F 36% 30.20 in 10.0 mi Calm Calm - N/A   Clear
5:15 AM 37.4 °F - 15.8 °F 41% 30.20 in 10.0 mi Calm Calm - N/A   Clear
5:35 AM 39.2 °F 35.0 °F 15.8 °F 39% 30.21 in 10.0 mi ESE 5.8 mph - N/A   Clear
5:55 AM 39.2 °F 34.2 °F 15.8 °F 39% 30.21 in 10.0 mi SE 6.9 mph - N/A   Clear
6:15 AM 37.4 °F 34.9 °F 15.8 °F 41% 30.22 in 10.0 mi SE 3.5 mph - N/A   Clear
6:35 AM 37.4 °F - 15.8 °F 41% 30.22 in 10.0 mi Calm Calm - N/A   Clear
6:55 AM 42.8 °F - 17.6 °F 36% 30.22 in 10.0 mi Calm Calm - N/A   Clear
7:15 AM 48.2 °F - 21.2 °F 34% 30.23 in 10.0 mi Calm Calm - N/A   Clear
7:35 AM 48.2 °F - 21.2 °F 34% 30.24 in 10.0 mi Calm Calm - N/A   Clear
7:55 AM 51.8 °F - 21.2 °F 30% 30.24 in 10.0 mi Calm Calm - N/A   Clear
8:15 AM 55.4 °F - 21.2 °F 26% 30.24 in 10.0 mi SW 6.9 mph - N/A   Clear
8:35 AM 57.2 °F - 21.2 °F 25% 30.24 in 10.0 mi WSW 6.9 mph - N/A   Clear
8:55 AM 59.0 °F - 21.2 °F 23% 30.25 in 10.0 mi SSW 4.6 mph - N/A   Clear
9:15 AM 62.6 °F - 21.2 °F 20% 30.24 in 10.0 mi Calm Calm - N/A   Clear
9:35 AM 62.6 °F - 21.2 °F 20% 30.24 in 10.0 mi West 5.8 mph - N/A   Clear
9:55 AM 62.6 °F - 21.2 °F 20% 30.24 in 10.0 mi SW 10.4 mph - N/A   Clear
10:15 AM 64.4 °F - 21.2 °F 19% 30.24 in 10.0 mi SE 3.5 mph - N/A   Clear
10:35 AM 66.2 °F - 21.2 °F 18% 30.23 in 10.0 mi SW 10.4 mph - N/A   Clear
10:55 AM 66.2 °F - 21.2 °F 18% 30.23 in 10.0 mi South 4.6 mph - N/A   Clear
11:15 AM 66.2 °F - 21.2 °F 18% 30.22 in 10.0 mi West 4.6 mph - N/A   Clear
11:35 AM 69.8 °F - 21.2 °F 16% 30.22 in 10.0 mi South 3.5 mph - N/A   Clear
11:55 AM 71.6 °F - 21.2 °F 15% 30.21 in 10.0 mi WSW 13.8 mph 18.4 mph N/A   Clear
12:15 PM 71.6 °F - 21.2 °F 15% 30.21 in 10.0 mi West 4.6 mph - N/A   Clear
12:35 PM 71.6 °F - 21.2 °F 15% 30.20 in 10.0 mi South 3.5 mph - N/A   Clear
12:55 PM 73.4 °F - 21.2 °F 14% 30.19 in 10.0 mi WSW 3.5 mph - N/A   Clear
1:15 PM 75.2 °F - 21.2 °F 13% 30.18 in 10.0 mi WSW 12.7 mph 24.2 mph N/A   Clear
1:35 PM 75.2 °F - 21.2 °F 13% 30.18 in 10.0 mi SW 10.4 mph 18.4 mph N/A   Clear
1:55 PM 75.2 °F - 21.2 °F 13% 30.16 in 10.0 mi West 9.2 mph 23.0 mph N/A   Clear
2:15 PM 75.2 °F - 21.2 °F 13% 30.16 in 10.0 mi WSW 3.5 mph 23.0 mph N/A   Clear
2:35 PM 77.0 °F - 21.2 °F 12% 30.15 in 10.0 mi West 15.0 mph 23.0 mph N/A   Clear
2:55 PM 78.8 °F - 21.2 °F 12% 30.15 in 10.0 mi WNW 12.7 mph 24.2 mph N/A   Clear
3:15 PM 78.8 °F - 19.4 °F 11% 30.14 in 10.0 mi WSW 12.7 mph 25.3 mph N/A   Clear
3:35 PM 78.8 °F - 19.4 °F 11% 30.14 in 10.0 mi WSW 11.5 mph 26.5 mph N/A   Clear
3:55 PM 78.8 °F - 19.4 °F 11% 30.13 in 10.0 mi West 9.2 mph 24.2 mph N/A   Clear
4:15 PM 78.8 °F - 19.4 °F 11% 30.13 in 10.0 mi SW 9.2 mph 26.5 mph N/A   Clear
4:35 PM 78.8 °F - 19.4 °F 11% 30.13 in 10.0 mi West 12.7 mph 18.4 mph N/A   Clear
4:55 PM 78.8 °F - 19.4 °F 11% 30.12 in 10.0 mi WSW 9.2 mph 20.7 mph N/A   Clear
5:15 PM 78.8 °F - 19.4 °F 11% 30.12 in 10.0 mi West 13.8 mph - N/A   Clear
5:35 PM 78.8 °F - 19.4 °F 11% 30.12 in 10.0 mi West 15.0 mph 26.5 mph N/A   Clear
6:15 PM 77.0 °F - 17.6 °F 11% 30.11 in 10.0 mi West 11.5 mph 21.9 mph N/A   Clear
6:35 PM 75.2 °F - 17.6 °F 11% 30.12 in 10.0 mi West 15.0 mph 20.7 mph N/A   Clear
6:55 PM 75.2 °F - 15.8 °F 11% 30.12 in 10.0 mi WNW 16.1 mph 19.6 mph N/A   Clear
7:15 PM 73.4 °F - 15.8 °F 11% 30.12 in 10.0 mi West 13.8 mph 20.7 mph N/A   Clear
7:35 PM 71.6 °F - 14.0 °F 11% 30.13 in 10.0 mi West 11.5 mph - N/A   Clear
7:55 PM 66.2 °F - 10.4 °F 11% 30.14 in 10.0 mi West 9.2 mph - N/A   Clear
8:15 PM 62.6 °F - 8.6 °F 12% 30.14 in 10.0 mi West 10.4 mph - N/A   Clear
8:35 PM 59.0 °F - 6.8 °F 13% 30.14 in 10.0 mi WNW 9.2 mph - N/A   Clear
8:55 PM 59.0 °F - 6.8 °F 13% 30.15 in 10.0 mi West 6.9 mph - N/A   Clear
9:15 PM 59.0 °F - 6.8 °F 13% 30.15 in 10.0 mi NW 4.6 mph - N/A   Clear
9:35 PM 59.0 °F - 8.6 °F 14% 30.16 in 10.0 mi NW 4.6 mph - N/A   Clear
9:55 PM 51.8 °F - 3.2 °F 14% 30.16 in 10.0 mi NNE 6.9 mph - N/A   Clear
10:15 PM 53.6 °F - 8.6 °F 16% 30.16 in 10.0 mi North 5.8 mph - N/A   Clear
10:35 PM 46.4 °F 41.9 °F 6.8 °F 20% 30.17 in 10.0 mi East 9.2 mph - N/A   Clear
10:55 PM 48.2 °F - 14.0 °F 25% 30.16 in 10.0 mi ENE 6.9 mph - N/A   Clear
11:15 PM 46.4 °F 42.9 °F 10.4 °F 23% 30.16 in 10.0 mi ENE 6.9 mph - N/A   Clear
11:35 PM 46.4 °F 42.4 °F 10.4 °F 23% 30.16 in 10.0 mi East 8.1 mph - N/A   Clear
11:55 PM 46.4 °F 42.9 °F 10.4 °F 23% 30.15 in 10.0 mi East 6.9 mph - N/A   Clear